Espace membre
Imprimable
Brugge, 10/05/2015, BEL - Dwars door Brugge
Liste des rapports > 15km - Classement
Recherche: Page: [1]
310 Entrées
 
Les réclamations ne sont plus acceptées, les résultats sont considérés comme définitifs.
RangNrNomAgeIOCEquipeTempsTkmMoy.ScrLocalité
1.4131VAN CAUWENBERGHE Filip47BEL53:443:35 16.7529WINGENE
2.320DEROUS Stefaan49BELAC SODIBRUG54:033:37 16.6530BRUGGE
3.3434TILLEMAN Bruno46BEL54:553:40 16.3940BLANKENBERGE
4.2923D'HEER Guy47BEL55:043:41 16.3543BERLARE
5.4521DHONT Christiaan45BEL56:253:46 15.9659MALDEGEM
6.4513LANSZWEERT Stefaan46BEL56:543:48 15.8267SINT-KRUIS
7.1351JOOS Pauwel49BEL57:443:51 15.5985MALDEGEM
8.106CERISIER Peter47BEL57:573:52 15.5394ASSEBROEK
9.284HOMBLÉ Peter49BEL58:123:53 15.47101KOKSIJDE
10.3124VANNESTE Stefaan48BEL58:213:54 15.42107JABBEKE
11.1753RAEYMAEKERS Christiaan46BEL58:313:55 15.38113LIER
12.4626VANHEE Yves46BEL58:343:55 15.37115BRUGGE
13.3840RAES Paul48BEL58:443:55 15.33122ASSE
14.65DECOENE Henk46BEL59:023:57 15.25132POPERINGE
15.2968DELATTRE Luc45BEL59:143:57 15.20136ROOSDAAL
16.4273DEJARDIN Stéphane46BEL59:403:59 15.08150BRUGGE
17.4739CASIER Joris49BEL59:423:59 15.08151BRUGGE
18.153STROBBE Edwin46BEL59:464:00 15.06155ZOMERGEM
19.62LORGE Jean Marc49BEL59:574:00 15.01158EGHEZEE
20.166LANDUYT Rafaël49BEL1:00:174:02 14.93175SINT-JANS-MOLENBEEK
21.1760INION Kris45BEL1:00:574:04 14.77198ASSEBROEK
22.1989VAN DEN DRIES Geert45BELARGENTA1:01:084:05 14.72207MUIZEN
23.4136INGHELBRECHT Francis48BEL1:01:214:06 14.67215BRUGGE
24.1586VERLINDE Steven46BEL1:01:264:06 14.65217ALVERINGEM
25.4586SCHOONBAERT Fangio45BEL1:01:324:07 14.63220ST KRUIS
26.4741MATTELE Emmanuel48BEL1:01:394:07 14.60230SINT-ANDRIES
27.119COMBES Olivier45BEL1:01:584:08 14.53246BEERNEM
28.75LAUWERS Frank46BEL1:02:164:10 14.45262SIJSELE
29.355CEUNIS Bruno47BELGROEP ADMB1:02:184:10 14.45265BRUGGE
30.4961VANDOORN Winny46BEL1:02:494:12 14.33290WINGENE
31.356LOGGHE Jan49BELGROEP ADMB1:03:074:13 14.26305BRUGGE
32.361MACHTELINGS Dirk47BELJOGGING ERWETEGEM1:03:084:13 14.26306ZOTTEGEM
33.3834DEWITTE Bart48BEL1:03:344:15 14.16323SINT-MICHIELS
34.281CLAEYS Yves48BEL1:03:364:15 14.15328ZEDELGEM
35.2329MAERTENS Koen46BELDVV1:03:454:15 14.12333SNELLEGEM
36.309COUCHEZ Dirk47BEL1:03:554:16 14.08349KEMMEL
37.3635LONCKE Frankie48BEL1:04:194:18 14.00376LISSEWEGE
38.174VANHAECKE Ronny48BEL1:04:414:19 13.91392OOSTENDE
39.4458DEWULF Lieven49BEL1:04:544:20 13.87407OEDELEM
40.204GHEERAERT Sven45BEL1:05:194:22 13.78428VILVOORDE
41.201VAN ESPEN Luc48BEL1:05:194:22 13.78430MECHELEN
42.3607VAN BELLE Rony48BEL1:06:124:25 13.60481BRUGGE
43.3628VERGISON Johnny45BEL1:06:144:25 13.59486BRUGGE
44.3908VAN KERCKHOVEN Wim49BEL1:06:224:26 13.56500WESTMEERBEEK
45.4244VANDAELE Lode45BEL1:06:324:27 13.53514BRUGGE
46.2928CASTELAIN Peter47BEL1:06:404:27 13.50522KESSEL-LO
47.135SABBE Filip46BEL1:06:464:28 13.48527NEVELE
48.1273WOUTERS Bart46BEL1:07:054:29 13.42551BRUGGE
49.3888HAST Mario46BEL1:07:054:29 13.42552ZEDELGEM
50.3605JANSSENS Alain47BEL1:07:064:29 13.41554OOSTKAMP
51.3485VERMEERSCH Dany47BEL1:07:254:30 13.35571BLANKENBERGE
52.4386VANDENBROUCKE Chris45BEL1:07:374:31 13.31582SINT ANDRIES
53.1953VAN ACKER Dirk46BEL1:07:434:31 13.29590ASSEBROEK
54.207DOBBELAERE Dirk47BEL1:07:444:31 13.29593MOERKERKE
55.3812LONGUEVILLE Stéphane48BEL1:07:444:31 13.29594SINT-ANDRIES
56.4214VAN VYNCKT Wim46BEL1:07:454:31 13.28597LANDEGEM
57.3924VAN RENTERGHEM Geert49BEL1:07:494:32 13.27605RUISELEDE
58.4183DELOOF Jan45BEL1:08:054:33 13.22620ASSEBROEK
59.1211VAN DOORSELAER Geert45BEL1:08:074:33 13.21624ASSEBROEK
60.518BIEMOLT Willem49NLD1:08:094:33 13.21625UTRECHT
61.4039GOETHALS Arne46BEL1:08:234:34 13.16646MOERKERKE
62.347DEMEULEMEESTER Frank47BELEAW_ING1:08:244:34 13.16647KOOLKERKE BRUGGE
63.2754VANWILDEMEERSCH Peter47BELVIVES KATHOLIEKE HOGESCHO1:08:474:36 13.09682BRUGGE
64.2055VAN ENGELAND Wim47BELARGENTA1:08:584:36 13.05697ONZE LIEVE VROUW WAVER
65.3692SIMONS Jimmy46BEL1:09:164:38 13.00715SNELLEGEM
66.4969DECLERCQ Nico47BEL1:09:204:38 12.98720KRUISHOUTEM
67.210MOONS Bart46BEL1:09:204:38 12.98722BRUGGE
68.4368SCHOUTEERE Luc47BEL1:09:214:38 12.98725ZEEBRUGGE
69.3843VAN DEN HENDE Stijn49BEL1:09:224:38 12.98727BRUGGE
70.1709COUVREUR Hans46BEL1:09:234:38 12.97731BREDENE
71.109VYNCKE Peter47BEL1:09:264:38 12.96735BRUGGE
72.3847DE BAETS Eddy49BEL1:09:274:38 12.96736ZOMERGEM
73.288GHELDOF Koen46BEL1:09:294:38 12.95740BRUGGE
74.4146VERDUYN Eddy48BEL1:09:374:39 12.93751DAMME-SIJSELE
75.3105SEGERS Stefan49BEL1:09:484:40 12.90763GERAARDSBERGEN
76.444VANDEWIELE Lieven47BEL1:09:544:40 12.88771ROESELARE
77.4507DEWAELE Didier47BEL1:10:214:42 12.79802KNOKKE-HEIST
78.200STUL Geert46BEL1:10:324:43 12.76820DAMME
79.2312VAN DE SYPE Marc48BELDVV1:10:324:43 12.76821LEDE
80.351MOHAMED OSMAN Guuleed46BELEAW_ING1:10:344:43 12.76822GERAARDSBERGEN
81.1764VANMAEKELBERGH Pascal49BEL1:10:424:43 12.73843WINGENE
82.257BLIECK Patje45BEL1:10:424:43 12.73844BRUGGE
83.664DEKLERCK Jan46BEL1:10:444:43 12.72849VARSENARE
84.4197VAN NESTE Stefan45BEL1:10:454:43 12.72851RUDDERVOORDE
85.4971BOUDRINGHIEN Rino49BEL1:10:514:44 12.70868ANZEGEM
86.3544MACOURS Kristof49BEL1:11:044:45 12.66886BRUGGE
87.840DENYS Bart46BEL1:11:074:45 12.66889ASSEBROEK
88.3662COTTON Pascal46BEL1:11:084:45 12.65894ST.- PAUWELS
89.834DESPEGHEL Philip48BEL1:11:144:45 12.64900SINT ANDRIES
90.3446DAVID Filip48BEL1:11:284:46 12.60920TIELT
91.4428BASSOUNE Mo46BEL1:11:314:47 12.59924OOSTENDE
92.111TJOENS Yves46BEL1:11:374:47 12.57933BRUGGE
93.2125PICEU Hans46BELAZ SINT-LUCAS BRUGGE1:11:414:47 12.56935ASSEBROEK
94.2138DONS Benjamin49BELAZ SINT-LUCAS BRUGGE1:11:424:47 12.55936OEDELEM
95.488VAN DE VENNE Eddy47BEL1:11:524:48 12.52944WILLEBROEK
96.1651DE CONINCK Johan47BEL1:11:564:48 12.51953MEIGEM
97.3318DE COESSEMAEKER Pascal46BEL1:12:014:49 12.50958BRUGGE
98.1789DESCHEEMAEKER Patrick47BEL1:12:124:49 12.47972ZEDELGEM
99.479JACQUES Patrick49BEL1:12:134:49 12.47975OOSTKAMP
100.1043CLEENEWERCK Peter46BEL1:12:154:49 12.46979POPERINGE
101.4619KNOCKAERT Jan48BEL1:12:184:50 12.45987VARSENARE
102.4602DEVRIENDT Joan48BEL1:12:204:50 12.44992SINT-MICHIELS
103.4399CATTEAU Tom45BEL1:12:354:51 12.401009BRUGGE
104.3361RAPPE Patrick47BEL1:12:394:51 12.391022KNOKKE-HEIST
105.4755VANDEVELDE Jan48BEL1:12:444:51 12.371027BRUGGE
106.155DECLERCK Marc48BEL1:12:464:52 12.371028HARELBEKE
107.1002BONTE Bruno45BEL1:12:474:52 12.371032BOORTMEERBEEK
108.4119DE COSTER Bart46BEL1:12:494:52 12.361037LOPPEM
109.728LAMBRECHT Jan46BEL1:13:254:54 12.261098MENEN
110.1614DE TROCH Pascal49BEL1:13:284:54 12.251104GERAARDSBERGEN
111.2015CALLEWAERT Gerdi45BELARGENTA1:13:334:55 12.241117KORTEMARK
112.3313TOURLAMAIN Ronny46BEL1:13:374:55 12.231124MERELBEKE
113.4591DE HERT Tom45BEL1:13:434:55 12.211130ZERKEGEM
114.790BULCKE Jan49BEL1:13:454:55 12.201134OOSTKAMP
115.108VROONHOVE Patrick45BEL1:13:494:56 12.191139STEENHUIZE-WIJNHUIZE
116.3958JACQUES Martin45BEL1:13:494:56 12.191140SINT-MICHIELS
117.4768ROGGEMAN Luc49BEL1:13:584:56 12.171157OOSTKAMP
118.1018SCHOCKAERT Bart45BEL1:14:044:57 12.151169BREDENE
119.2466LOGGHE Kris48BELIMMACULATA INSTITUUT1:14:064:57 12.151173
120.3121CLAUWS Marc47BEL1:14:264:58 12.091214EEKLO
121.1631D'HAESE Hans49BEL1:14:284:58 12.091219AALST
122.2075VERSTRAETE Olivier47BELARGENTA1:14:314:59 12.081226BRUGGE
123.650KERCKHOVE Koen47BEL1:14:344:59 12.071229BRUGGE
124.4028BURGGRAEVE Bart45BEL1:14:344:59 12.071232ST-ANDRIES
125.1070BLOMMAERT Dc49BEL1:14:394:59 12.061247GENT
126.328VERSTRAETE Luc46BELARGENTA1:14:525:00 12.021285GENT
127.2232VAN EECKHOUT Francis47BELBROUWERIJ DE HALVE MAAN1:14:595:00 12.001297ROESELARE
128.88VANDEPUTTE Jim45BEL1:15:155:01 11.961329URSEL
129.1315LEFEVRE Marnix46BEL1:15:195:02 11.951335BELLEM
130.587BALANCK Tom48BEL1:15:245:02 11.941349BRUGGE
131.234VAN HAECKE Paul48BEL1:15:375:03 11.901373AALTER
132.1329VERSCHAETSE Geert49BEL1:15:385:03 11.901375MEETKERKE
133.3080VANDEVYVERE Bruno45BEL1:15:395:03 11.901378BRUGGE
134.1291DE GREYT Wim48BEL1:15:405:03 11.901380STEKENE
135.4731BRUYNOOGHE Stefaan45BEL1:15:405:03 11.901381OOSTKAMP
136.4407ROGIERS Wim49BEL1:15:465:04 11.881389ZEDELGEM
137.1332BECUE Marc48BEL1:15:545:04 11.861404OOSTKAMP
138.4125KNOCKAERT Filip48BEL1:16:095:05 11.821429SNELLEGEM
139.3858DENYS Miguel46BEL1:16:215:06 11.791450SINT-ANDRIES
140.973HUBERT Daniel45BEL1:16:325:07 11.761463MARIAKERKE
141.2723MOREELS Tony48BELVGD ACCOUNTANTS & BELASTI1:16:335:07 11.761465ZELE
142.3457ROTSAERT David48BEL1:16:375:07 11.751468BRUGGE
143.1561VANDENBRUAENE Hendrik45BEL1:16:395:07 11.741474TIELT
144.4625VAN ACKER Stefan45BEL1:16:515:08 11.711498VARSENARE
145.3857PIETERS Patrick49BEL1:16:565:08 11.701509OOSTDUINKERKE
146.2240VANDEPUTTE Wim48BELCONSTANT DEBLAERE1:16:565:08 11.701510TIELT
147.1399HENRY Geert46BEL1:17:005:08 11.691519OOSTENDE
148.3366CATTRYSSE Mario45BEL1:17:175:10 11.651546OOSTENDE
149.3825BLOMME Jean Yves45BEL1:17:265:10 11.621560BRUGGE
150.1847VANTHOURNOUT Geert48BEL1:17:305:10 11.611565BRUGGE
151.3932HAELEMEERSCH Rik46BEL1:17:335:11 11.611571RUDDERVOORDE
152.1659KINABLE Koen49BEL1:17:395:11 11.591584WENDUINE
153.757CAMPO Peter45BEL1:17:505:12 11.561609MOERZEKE
154.335DE SUTTER Marc49BELARGENTA1:18:005:12 11.541629MERE
155.1097VERSCHUERE Klaus45BEL1:18:045:13 11.531633WEVELGEM
156.1193VANTHUYNE Kris49BEL1:18:195:14 11.491665ASSEBROEK
157.459HEUGHEBAERT Ronny48BEL1:18:205:14 11.491673KNOKKE-HEIST
158.1257RHIND Chris45GBR1:18:455:15 11.431723BASILDON
159.2789VANDOORNE Peter49BELVRIJ TECHNISCH INSTITUUT1:18:465:16 11.431726BRUGGE
160.2413VAN PARYS Hendrik45BELGROEP ADMB1:18:505:16 11.421735BEERNEM
161.3991MINNE Peter49BEL1:19:025:17 11.391763BEERNEM
162.1873CAPPON Yves45BEL1:19:055:17 11.381766SINT-ANDRIES
163.4529VAN DORPE Pascal49BEL1:19:125:17 11.361781RUISELEDE
164.4694GLORIE Christophe47BEL1:19:135:17 11.361784KOOLKERKE
165.2267VAN DAMME Bart48BELDE VITA JOGGERS1:19:145:17 11.361785NIEUWENHOVE
166.4531D'HOORE Christophe45BEL1:19:165:18 11.361787SINT-ANDRIES
167.3404CAPPELLE Jo49BEL1:19:165:18 11.361790BRUGGE
168.2914DECONINCK Fabrice45BEL1:19:195:18 11.351794IXELLES
169.1092DE LAENDER Dirk46BEL1:19:215:18 11.341797BEERNEM
170.3390DE COSTER Robert47BEL1:19:225:18 11.341802DE HAAN
171.2233VAN OUTRYVE D'YDEWAL Frédéric48BELBROUWERIJ DE HALVE MAAN1:19:325:19 11.321820RUDDERVOORDE
172.783BEERENS Bart45BEL1:19:325:19 11.321821ROOSDAAL
173.4661DIERKENS Hendrik45BEL1:19:375:19 11.311832SINT-MICHIELS
174.4758DE VOOGHT Bernard47BEL1:19:405:19 11.301845BRUGGE
175.4225VANCANNEYT Francky46BEL1:19:495:20 11.281857SINT-MICHIELS
176.4275VAN CRAEYNEST Peter45BEL1:19:535:20 11.271868SINT ANDRIES
177.879VANDECAPPELLE Philippe46BEL1:19:535:20 11.2718695060
178.2186SERREYN Pieter46BELBNP PARIBAS FORTIS1:20:385:23 11.161946DAMME
179.2591NOYELLE Hans49BELMARINE HARVEST PIETERS1:20:395:23 11.161948ASSEBROEK
180.736CLYNCKE Peter49BEL1:20:435:23 11.151953ST-KRUIS
181.1091DE MOL Beny49BEL1:20:545:24 11.131973SCHELLEBELLE
182.3535HELLEMANS Toon49BEL1:21:165:26 11.082008MELSELE
183.3056DEPUYDT Jan49BEL1:21:225:26 11.062018KORTEMARK
184.336VAN BEVEREN Hedwig49BELARGENTA1:21:275:26 11.052028MOERBEKE-WAAS
185.3665DE LANDSHEER Wim45BEL1:21:275:26 11.052029RESSEGEM HERZELE
186.4418D'HONDT Philip49BEL1:21:325:27 11.042036ASSEBROEK
187.570DE STOOP Frank49BEL1:21:535:28 10.992075NAZARETH
188.3845VANDENBUSSCHE Ronny45BEL1:21:585:28 10.982084OEDELEM
189.1874DE BUSSCHERE Carl46BEL1:21:585:28 10.982085SINT ANDRIES
190.2231DE GRYSE Peter45BELBROUWERIJ DE HALVE MAAN1:21:595:28 10.982087OOSTENDE
191.4514DENYS Jan46BEL1:21:595:28 10.982089ASSEBROEK
192.3008RASSCHAERT Dirk49BEL1:22:005:28 10.982090LANDEGEM
193.782VAN CAMP Luc45BEL1:22:025:29 10.972093MENEN
194.2788LEBER Herman49BELVRIJ TECHNISCH INSTITUUT1:22:025:29 10.972094BRUGGE
195.2463DEDECKERE Dominique48BELIMMACULATA INSTITUUT1:22:025:29 10.972095
196.1743CREMONINI Gabriele49ITA1:22:045:29 10.972100SAN LAZZARO
197.4596LEGEIN Frederick47BEL1:22:045:29 10.972101NIEUWMUNSTER
198.1812DEWULF Filip47BEL1:22:115:29 10.952113SINT-KRUIS
199.3067DE BAENE Koen46BEL1:22:135:29 10.952118DUDZELE
200.862DE BOECK Wim45BEL1:22:165:30 10.942122AALST
201.1390VAN VOOREN Philippe47BEL1:22:205:30 10.932131EVERGEM-ERTVELDE
202.3326DE VISSCHER Frank48BEL1:22:265:30 10.922138KOEKELBERG
203.1823VANOVERBEKE Piet49BEL1:22:415:31 10.892160MASSEMEN
204.1780ANNYS Paul47BEL1:22:475:32 10.872171BRUGGE
205.3650FOLLENS Piet47BEL1:22:515:32 10.862176DILBEEK
206.1195DHOEST Filip45BEL1:22:555:32 10.862185ST ANDRIES
207.3862RYELANDT Günther47BEL1:23:135:33 10.822225SINT-KRUIS
208.3706DEVELTER Jan49BEL1:23:165:34 10.812229EEKLO
209.2050BOONEFAES Pedro45BELARGENTA1:23:195:34 10.802241SINT-ANDRIES
210.4976ENGELS Koen49BEL1:23:365:35 10.772283WAREGEM
211.842DE VOS Bruno46BEL1:23:385:35 10.762285OPWIJK
212.1113MOROBE Jan45BEL1:23:395:35 10.762287BRUGGE
213.665SOULLIAERT Hans45BEL1:23:415:35 10.752289OOSTKAMP
214.2040DEPOTTER Pascal45BELARGENTA1:23:475:36 10.742299HERNE
215.714NEIRYNCK Jan46BEL1:23:475:36 10.742300AALTER
216.2966KAOUNIS Nikolaos45GRC1:23:555:36 10.732319ATHENS
217.765ROOS Cornelis49NLD1:23:565:36 10.722321SINT MICHIELS BRUGGE
218.2059DE MEESTER Patrick48BELARGENTA1:24:145:37 10.692359BLANKENBERGE
219.3303STEVENS Hein45BEL1:24:155:37 10.682362OEKENE
220.1367PYPE Jan47BEL1:24:155:37 10.682364HERNE
221.1312COBBAERT Chris48BEL1:24:315:39 10.652389BRUGGE
222.758CATRYSSE Koen49BEL1:24:345:39 10.642394VELDEGEM
223.3634SEURINCK Dieter45BEL1:25:085:41 10.572455ROESELARE
224.954VAN DEN HENDE Nick49BEL1:25:145:41 10.562461BRASSCHAAT
225.482BULTIAUW Guy49BEL1:25:175:42 10.552467BRUGGE
226.740VERLEYE Nathan45BEL1:25:295:42 10.532483LOMBARDSIJDE
227.2305VANDEN BILCKE Vincent47BELDVV1:25:305:42 10.532485ZEDELGEM
228.698DE BRABANDERE Christophe49BEL1:25:335:43 10.522491OOSTKAMP
229.2929ROELS Tom47BEL1:25:345:43 10.522492ANTWERPEN
230.2999DENOLF Stefaan47BEL1:25:365:43 10.512499SCHEPDAAL
231.4352LAMRECHT Bart48BEL1:25:385:43 10.512504ASSEBROEK
232.456D'ARTOIS Filip49BEL1:25:425:43 10.502519BRUGGE
233.3034VAN HEKCE Paul49BEL1:25:515:44 10.482536ZEDELGEM
234.3006SCHEIRSEN Marc46BEL1:26:095:45 10.452576SINT-ANDRIES
235.4598LAMBRECHT Bruno49BEL1:26:205:46 10.422598HERTSBERGE
236.1644DE BREE Didier48BEL1:26:395:47 10.392644KNOKKE-HEIST
237.1504DECALUWE Wim46BEL1:26:485:48 10.372659SINT-ANDRIES
238.1591MYNCKE Luc45BEL1:26:495:48 10.372660SINT- DENIJS-WESTREM
239.2311VAN DAMME Kris45BELDVV1:27:045:49 10.342695WICHELEN
240.3677VAN CANNEYT Guy48BEL1:27:085:49 10.332702OOSTDUINKERKE
241.2605RYCX Mikaël46BELMIDDENSCHOOL BRUGGE CENTR1:27:115:49 10.322707
242.3637CLAEYS Koen45BEL1:27:115:49 10.322709BRUGGE - ST.ANDRIES
243.581VAN HOETEGHEM Thomas45BEL1:27:195:50 10.312731ADEGEM
244.3548VAN DEN BUSSCHE Thierry45BEL1:27:205:50 10.312735KORTRIJK
245.4164VANDEVANNET Patrick45BEL1:27:465:52 10.262787ST ANDRIES
246.3116BUCQUOYE Bernard45BEL1:27:475:52 10.252789MALDEGEM
247.1816LECLUYSE Jurgen48BEL1:27:555:52 10.242803BRUGGE
248.683VERMEULEN Didier49BEL1:27:575:52 10.232807SINT-LIEVENS-HOUTEM
249.1977MOUTON Kris46BELAC SODIBRUG1:28:305:54 10.172857BRUGGE
250.3304WYSEUR Marc49BEL1:28:345:55 10.162864BRUGGE
251.3507WOLFS Geert46BEL1:28:445:55 10.142890ASSEBROEK
252.1046COUCKUYT Joost49BEL1:28:535:56 10.132902LAUWE
253.3378VAN CALENBERG Pascal47BEL1:28:545:56 10.122903WESTREM
254.1837DE POORTER Tom48BEL1:29:015:57 10.112913ZELZATE
255.2005VAN LERSBERGHE Frank45BELARGENTA1:29:135:57 10.092926WESTKAPELLE
256.3937DEBEVERE Stefaan46BEL1:29:255:58 10.072950VARSENARE
257.2161ARTS Joris46BELAZ SINT-LUCAS BRUGGE1:29:415:59 10.042981SINT-KRUIS
258.755BOON Filip47BEL1:29:496:00 10.023004SINT-NIKLAAS
259.3164SWIMBERGHE Patrick49BEL1:30:236:02 9.963062BRUGGE
260.3618MAENHAUT Jan45BEL1:30:316:03 9.943077OOSTKAMP
261.2181HALLAERT Danny45BELBNP PARIBAS FORTIS1:30:316:03 9.943078RUDDERVOORDE
262.4234STROEF Hans46BEL1:30:446:03 9.923096GULLEGEM
263.3428VERMEIRE Piet49BEL1:30:526:04 9.903106BRUGGE
264.1361PYPE Peter49BEL1:31:026:05 9.893123GITS
265.3980LANOYE Patrick48BEL1:31:316:07 9.843166BRUGGE
266.4186DEHULLU Stef45BEL1:31:416:07 9.823182SINT-ANDRIES
267.2157DE BREE Johan48BELAZ SINT-LUCAS BRUGGE1:31:426:07 9.813188BLANKENBERGE
268.4719VANTHORRE Dimitri45BEL1:31:516:08 9.803203SINT-KRUIS BRUGGE
269.3109THYS Koen45BEL1:32:046:09 9.783221BRUGGE
270.3881VAN BELLE Serge48BEL1:32:096:09 9.773231ZEEBRUGGE
271.3996SOUTAER Francis48BEL1:32:226:10 9.743244SINT-MICHIELS
272.1960BRACKE Bart48BEL1:32:486:12 9.703283BRUGGE
273.1270VANDECASTEELE Koen46BEL1:33:036:13 9.673301BELSELE
274.4612ACKE Nico45BEL1:33:056:13 9.673302BRUGGE
275.3168DEPAPE Olivier46BEL1:33:076:13 9.673304
276.3103HUNGENAERT Bart48BEL1:33:136:13 9.663313KNOKKE HEIST
277.1214WATTE Chris49BEL1:33:236:14 9.643327SINT-LLIEVENS-HOUTEM
278.668BRACKE Marc49BEL1:33:236:14 9.643328TEMSE
279.1733CATRY Olivier46BEL1:33:286:14 9.633335NIEUWERKERKEN
280.2272DE MEL Geert49BELDE VITA JOGGERS1:33:426:15 9.613349DENDERWINDEKE
281.1752VAN MAELE Peter47BEL1:33:516:16 9.593363SINT-KRUIS
282.4515JACOBS Chris48BEL1:34:016:17 9.573368ASSEBROEK-BRUGGE
283.1305DEMUYNCK Filip48BEL1:34:236:18 9.543393LOTENHULLE
284.4051VAN RIET Joost48BEL1:35:096:21 9.463415NAZARETH
285.1801MAEKELBERGH Bryan45BEL1:35:166:22 9.453423SINT KRUIS
286.1686MAT Rene47BEL1:36:216:26 9.343493ZUIENKERKE
287.2033PEETERS Daniel46BELARGENTA1:37:186:30 9.253552ASSEBROEK
288.4769LEMAHIEU Thierry47BEL1:37:326:31 9.233563BRUGGE
289.1978DEMEYERE Alex47BELAC SODIBRUG1:37:396:31 9.223572BRUGGE
290.1696DE SCHEPPER Didier46BEL1:38:476:36 9.113627JABBEKE
291.4094ARICKX Jos48BEL1:38:486:36 9.113629BRUGGE
292.555HEBBRECHT Bert48BEL1:39:596:40 9.003676GENT
293.3844REUBENS Kristof47BEL1:40:206:42 8.973689ROESELARE
294.1178VERHAEGHE Johan46BEL1:40:356:43 8.953696HELKIJN
295.1834LYCKE Dany47BEL1:40:536:44 8.923704SINT-KRUIS
296.3975DE FRAEYE Bompol48BEL1:42:536:52 8.753773KOKSIJDE
297.3144BRACKE Nand46BEL1:42:586:52 8.743779MALDEGEM
298.2373VANDER STICHELE Ivan49BELEAW_ING1:43:166:54 8.723787KESSEL-LO
299.2857CRAEN Filip45BEL1:43:406:55 8.683801HOVE
300.4052PEERE Mickel45BEL1:43:536:56 8.663806BRUGGE
301.1077STROO Peter46BEL1:45:157:01 8.553831WESTREM
302.1534ROMMELAERE Joeri46BEL1:46:347:07 8.453848ROESELARE
303.1919D'HONDT Jurgen47BEL1:46:507:08 8.423854ANTWERPEN
304.4271PIERINS Vincent48BEL1:50:317:23 8.143902TORHOUT
305.625DUSSART Marc47BEL2:07:508:32 7.043963DEURNE
DNF1293DEKINDER Peter46BELMOL
DNF2043DERUDDER Henk47BELARGENTAICHTEGEM
DNF54JACOBUS Roel45BELDAMME-SIJSELE
DNF4181SCHELSTRAETE Nico47BELADEGEM
DNF3456TIREZ David47BELBLANKENBERGE
DNF: abandon; DSQ: disqualifié; Vitesse en km/h
Page: [1]